Вернуться в каталог

STARLINK-35528

АктивенСвязьVLEO
NORAD 66094·PAYLOAD·🇺🇸 United States

Запущен Oct 19, 2025 с Vandenberg Space Force Base

Loading…

Ближайшие Пролёты (ближайшие 24 часа)

TLE

СвежийSource: CelesTrak SupGP

Эпоха: Sep 15, 2026, 03:30 UTC

1 66094C 25236J   26258.14631944  .00016168  00000+0  47754-3 0  2587
2 66094  53.1590 302.6650 0001274  80.4434  83.9428 15.34391994    12

Отслеживайте STARLINK-35528 в реальном времени с AllMySat

Download on the App Store